DW1520 Weather Reports


time (UTC)temp
C
wind
direction
speed
KPH
gust
KPH
rain 1hr
cm
rain 24hr
cm
rain mn
cm
humidity
%
barometer
mb
20260906044006 22 348 1.6 3.2 0.00 0.00 0.00 89 1014.8
20260906043006 22 348 0.0 1.6 0.00 0.00 0.00 89 1014.8
20260906042506 22 348 0.0 1.6 0.00 0.00 0.00 89 1014.8
20260906042006 22 348 0.0 1.6 0.00 0.00 0.00 89 1014.8
20260906041007 22 348 0.0 0.0 0.00 0.00 0.00 89 1014.7
20260906040507 22 348 0.0 1.6 0.00 0.00 0.00 89 1014.7
20260906040006 22 348 0.0 0.0 0.00 0.00 0.00 89 1014.7
20260906035506 22 348 0.0 0.0 0.00 0.00 0.00 89 1014.7
20260906035006 22 348 0.0 0.0 0.00 0.00 0.00 89 1014.8
20260906034006 22 348 0.0 0.0 0.00 0.00 0.00 88 1014.8
20260906033007 22 348 0.0 0.0 0.00 0.00 0.00 88 1014.8
20260906032506 22 348 0.0 0.0 0.00 0.00 0.00 88 1014.8
20260906032006 22 348 0.0 0.0 0.00 0.00 0.00 88 1014.8
20260906031506 22 348 0.0 0.0 0.00 0.00 0.00 88 1014.7
20260906030507 22 348 0.0 0.0 0.00 0.00 0.00 88 1014.5
20260906030006 22 348 0.0 0.0 0.00 0.00 0.00 88 1014.4
20260906025506 22 348 0.0 0.0 0.00 0.00 0.00 88 1014.5
20260906024506 22 348 0.0 1.6 0.00 0.00 0.00 87 1014.3
20260906024007 22 348 0.0 1.6 0.00 0.00 0.00 87 1014.3
20260906023506 22 348 0.0 0.0 0.00 0.00 0.00 87 1014.2
20260906022506 22 348 0.0 0.0 0.00 0.00 0.00 87 1014.1
20260906022007 22 348 0.0 1.6 0.00 0.00 0.00 87 1013.9
20260906021506 23 348 1.6 3.2 0.00 0.00 0.00 87 1013.8
20260906021007 23 348 0.0 0.0 0.00 0.00 0.00 87 1013.7
20260906020507 23 348 0.0 1.6 0.00 0.00 0.00 87 1013.5
20260906020006 23 348 1.6 3.2 0.00 0.00 0.00 87 1013.4
20260906015506 23 348 0.0 0.0 0.00 0.00 0.00 87 1013.4
20260906014006 23 348 0.0 0.0 0.00 0.00 0.00 87 1013.3
20260906013507 23 348 0.0 3.2 0.00 0.00 0.00 87 1013.2
20260906013007 23 348 0.0 0.0 0.00 0.00 0.00 86 1013.2
20260906012507 23 348 1.6 3.2 0.00 0.00 0.00 86 1013.1
20260906012007 23 348 0.0 4.8 0.00 0.00 0.00 86 1012.9
20260906011506 23 348 0.0 4.8 0.00 0.00 0.00 86 1012.8
20260906011006 23 348 0.0 3.2 0.00 0.00 0.00 86 1012.7
20260906010506 23 348 0.0 3.2 0.00 0.00 0.00 85 1012.7
20260906010006 23 348 0.0 0.0 0.00 0.00 0.00 85 1012.7
20260906005506 23 348 0.0 1.6 0.00 0.00 0.00 85 1012.7
20260906005006 23 348 0.0 0.0 0.00 0.00 0.00 84 1012.7
20260906004506 23 348 0.0 0.0 0.00 0.00 0.00 84 1012.7
20260906004007 23 348 0.0 0.0 0.00 0.00 0.00 84 1012.6
20260906003506 24 348 0.0 1.6 0.00 0.00 0.00 84 1012.5
20260906003006 24 348 0.0 3.2 0.00 0.00 0.00 83 1012.4
20260906002506 24 348 0.0 3.2 0.00 0.00 0.00 83 1012.4
20260906002006 24 344 0.0 0.0 0.00 0.00 0.00 82 1012.5
20260906001506 24 344 0.0 1.6 0.00 0.00 0.00 82 1012.5
20260906001007 24 344 0.0 1.6 0.00 0.00 0.00 82 1012.6
20260906000506 24 344 0.0 3.2 0.00 0.00 0.00 82 1012.7
20260906000006 24 344 0.0 1.6 0.00 0.00 0.00 82 1012.7
20260905235506 25 344 0.0 3.2 0.00 0.00 0.00 81 1012.6
20260905235007 25 344 0.0 3.2 0.00 0.00 0.00 81 1012.6
20260905234506 25 344 1.6 4.8 0.00 0.00 0.00 81 1012.6
20260905234006 25 163 1.6 11.3 0.00 0.00 0.00 81 1012.5
20260905233507 25 165 3.2 11.3 0.00 0.00 0.00 81 1012.4
20260905233006 25 69 0.0 4.8 0.00 0.00 0.00 81 1012.4
20260905232506 25 49 0.0 4.8 0.00 0.00 0.00 81 1012.4
20260905232006 25 46 3.2 4.8 0.00 0.00 0.00 80 1012.4
20260905231506 25 355 1.6 4.8 0.00 0.00 0.00 80 1012.3
20260905230006 25 35 3.2 8.0 0.00 0.00 0.00 80 1012.2
20260905225506 25 32 3.2 8.0 0.00 0.00 0.00 79 1012.1
20260905225006 25 94 1.6 4.8 0.00 0.00 0.00 79 1012.0
20260905224506 25 338 3.2 8.0 0.00 0.00 0.00 80 1011.9
20260905224006 25 358 1.6 8.0 0.00 0.00 0.00 80 1011.9
20260905223506 25 26 6.4 11.3 0.00 0.00 0.00 80 1011.9
20260905222006 25 66 4.8 9.7 0.00 0.00 0.00 79 1011.9
20260905221506 25 2 3.2 14.5 0.00 0.00 0.00 79 1011.9
20260905220506 25 11 3.2 8.0 0.00 0.00 0.00 79 1011.8
20260905220006 25 22 4.8 14.5 0.00 0.00 0.00 79 1011.8
20260905215506 25 65 4.8 14.5 0.00 0.00 0.00 79 1011.7
20260905215007 25 11 3.2 9.7 0.00 0.00 0.00 79 1011.8
20260905214506 25 19 3.2 12.9 0.00 0.00 0.00 80 1012.0
20260905214006 25 22 1.6 11.3 0.00 0.00 0.00 80 1011.9
20260905213506 25 46 4.8 11.3 0.00 0.00 0.00 80 1011.8
20260905213006 25 12 3.2 8.0 0.00 0.00 0.00 80 1011.9
20260905212506 25 336 3.2 4.8 0.00 0.00 0.00 80 1012.0
20260905212006 25 0 1.6 4.8 0.00 0.00 0.00 80 1012.2
20260905211006 25 352 3.2 8.0 0.00 0.00 0.00 79 1012.1
20260905210506 26 352 3.2 4.8 0.00 0.00 0.00 79 1012.1
20260905210006 26 343 3.2 4.8 0.00 0.00 0.00 79 1012.1
20260905205006 26 19 1.6 9.7 0.00 0.00 0.00 79 1012.3
20260905204506 26 76 3.2 4.8 0.00 0.00 0.00 79 1012.4
20260905204006 26 15 1.6 4.8 0.00 0.00 0.00 79 1012.5
20260905203006 26 336 3.2 8.0 0.00 0.00 0.00 79 1012.6
20260905202506 26 351 3.2 4.8 0.00 0.00 0.00 79 1012.6
20260905202006 26 0 3.2 4.8 0.00 0.00 0.00 79 1012.6
20260905201006 26 232 1.6 4.8 0.00 0.00 0.00 78 1012.9
20260905200006 26 193 0.0 4.8 0.00 0.00 0.00 79 1013.1
20260905195506 26 193 1.6 3.2 0.00 0.00 0.00 80 1013.2
20260905195007 26 194 0.0 3.2 0.00 0.00 0.00 80 1013.2
20260905194006 26 166 1.6 4.8 0.00 0.00 0.00 80 1013.3
20260905193506 26 116 1.6 4.8 0.00 0.00 0.00 80 1013.4
20260905193006 26 116 1.6 3.2 0.00 0.00 0.00 80 1013.5
20260905192506 26 116 1.6 4.8 0.00 0.00 0.00 79 1013.4
20260905192006 26 115 1.6 3.2 0.00 0.00 0.00 80 1013.3
20260905191506 26 121 0.0 3.2 0.00 0.00 0.00 79 1013.4
20260905191006 26 121 1.6 4.8 0.00 0.00 0.00 79 1013.5
20260905190506 26 121 1.6 8.0 0.00 0.00 0.00 79 1013.5
20260905190006 26 161 1.6 8.0 0.00 0.00 0.00 80 1013.5
20260905185506 26 111 1.6 4.8 0.00 0.00 0.00 81 1013.4
20260905185007 26 110 0.0 4.8 0.00 0.00 0.00 81 1013.4
20260905184006 25 303 1.6 4.8 0.00 0.00 0.00 81 1013.6
20260905183506 25 344 1.6 4.8 0.00 0.00 0.00 83 1013.5
20260905183006 25 34 3.2 4.8 0.00 0.00 0.00 82 1013.4
20260905182506 25 5 0.0 4.8 0.00 0.00 0.00 84 1013.6
20260905182006 25 5 0.0 1.6 0.00 0.00 0.00 84 1013.8
20260905181506 24 5 1.6 3.2 0.00 0.00 0.00 85 1013.9
20260905181006 24 15 0.0 3.2 0.00 0.00 0.00 85 1013.9
20260905180506 24 31 0.0 3.2 0.00 0.00 0.00 85 1014.0
20260905180006 24 31 0.0 0.0 0.00 0.00 0.00 85 1014.0
20260905175506 24 31 0.0 0.0 0.00 0.00 0.00 85 1014.0
20260905174506 24 355 0.0 1.6 0.00 0.00 0.00 86 1014.2
20260905174006 24 355 0.0 1.6 0.00 0.00 0.00 87 1014.3
20260905173506 23 355 0.0 3.2 0.00 0.00 0.00 87 1014.2
20260905173007 23 355 0.0 3.2 0.00 0.00 0.00 87 1014.2
20260905172505 23 50 1.6 4.8 0.00 0.00 0.00 87 1014.3
20260905172006 23 56 1.6 3.2 0.00 0.00 0.00 87 1014.3
20260905171506 23 325 0.0 3.2 0.00 0.00 0.00 87 1014.4
20260905171006 23 325 0.0 1.6 0.00 0.00 0.00 87 1014.4
20260905170506 23 325 1.6 3.2 0.00 0.00 0.00 88 1014.4
20260905165505 23 325 1.6 3.2 0.00 0.00 0.00 88 1014.5
20260905165006 23 324 1.6 4.8 0.00 0.00 0.00 88 1014.4
20260905164506 23 332 1.6 4.8 0.00 0.00 0.00 88 1014.2
20260905164006 23 350 1.6 4.8 0.00 0.00 0.00 88 1014.1
20260905163506 23 333 1.6 4.8 0.00 0.00 0.00 88 1014.0
20260905162506 23 29 1.6 4.8 0.00 0.00 0.00 89 1014.0
20260905162006 23 29 1.6 4.8 0.00 0.00 0.00 88 1014.0
20260905161006 23 32 3.2 4.8 0.00 0.00 0.00 88 1014.0
20260905160506 23 53 3.2 4.8 0.00 0.00 0.00 89 1014.0
20260905160006 23 144 0.0 3.2 0.00 0.00 0.00 89 1014.0
20260905155506 23 106 1.6 3.2 0.00 0.00 0.00 89 1014.0
20260905155006 22 21 1.6 4.8 0.00 0.00 0.00 90 1013.9
20260905154506 22 331 1.6 4.8 0.00 0.00 0.00 90 1013.8
20260905153506 22 38 1.6 4.8 0.00 0.00 0.00 90 1013.8
20260905153006 22 33 3.2 4.8 0.00 0.00 0.00 91 1013.7
20260905152006 22 13 1.6 4.8 0.00 0.00 0.00 91 1013.7
20260905151506 22 12 0.0 4.8 0.00 0.00 0.00 92 1013.8
20260905151006 22 1 1.6 4.8 0.00 0.00 0.00 92 1013.8
20260905150006 22 5 0.0 4.8 0.00 0.00 0.00 92 1013.5
20260905145506 22 11 1.6 4.8 0.00 0.00 0.00 92 1013.5
20260905145006 21 355 1.6 4.8 0.00 0.00 0.00 92 1013.5
20260905144506 21 48 1.6 4.8 0.00 0.00 0.00 92 1013.5
20260905144006 21 13 0.0 4.8 0.00 0.00 0.00 92 1013.5
20260905143506 21 26 1.6 4.8 0.00 0.00 0.00 92 1013.5
20260905142506 21 5 0.0 3.2 0.00 0.00 0.00 92 1013.4
20260905142006 21 5 1.6 3.2 0.00 0.00 0.00 93 1013.4
20260905141506 21 5 0.0 4.8 0.00 0.00 0.00 93 1013.3
20260905141006 21 33 0.0 3.2 0.00 0.00 0.00 93 1013.3
20260905140506 21 12 0.0 4.8 0.00 0.00 0.00 93 1013.3
20260905140005 21 12 0.0 3.2 0.00 0.00 0.00 92 1013.2
20260905135006 21 16 1.6 3.2 0.00 0.00 0.00 92 1013.1
20260905134506 21 16 1.6 4.8 0.00 0.00 0.00 93 1013.1
20260905134006 21 0 1.6 4.8 0.00 0.00 0.00 93 1013.1
20260905133506 21 44 1.6 4.8 0.00 0.00 0.00 93 1013.0
20260905133006 21 44 1.6 4.8 0.00 0.00 0.00 93 1012.9
20260905132506 21 37 1.6 4.8 0.00 0.00 0.00 93 1012.9
20260905132006 21 342 0.0 3.2 0.00 0.00 0.00 92 1012.8
20260905131506 21 57 1.6 4.8 0.00 0.00 0.00 92 1012.6
20260905131006 21 17 1.6 4.8 0.00 0.00 0.00 92 1012.5
20260905130506 21 11 1.6 3.2 0.00 0.00 0.00 92 1012.3
20260905130006 21 25 1.6 4.8 0.00 0.00 0.00 92 1012.2
20260905125510 21 0 1.6 4.8 0.00 0.00 0.00 92 1012.1
20260905125006 21 9 3.2 4.8 0.00 0.00 0.00 93 1011.9
20260905124506 21 7 3.2 4.8 0.00 0.00 0.00 93 1011.8
20260905124006 21 34 3.2 8.0 0.00 0.00 0.00 93 1011.7
20260905123505 21 345 1.6 4.8 0.00 0.00 0.00 92 1011.6
20260905123006 21 34 1.6 3.2 0.00 0.00 0.00 92 1011.6
20260905122006 21 358 1.6 4.8 0.00 0.00 0.00 93 1011.7
20260905121506 21 351 1.6 3.2 0.00 0.00 0.00 93 1011.6
20260905120506 21 351 1.6 4.8 0.00 0.00 0.00 93 1011.6
20260905120006 21 355 1.6 4.8 0.00 0.00 0.00 93 1011.6
20260905115505 21 355 1.6 4.8 0.00 0.00 0.00 93 1011.7
20260905115006 21 355 0.0 3.2 0.00 0.00 0.00 93 1011.7
20260905114506 21 355 1.6 4.8 0.00 0.00 0.00 92 1011.6
20260905114006 21 355 0.0 1.6 0.00 0.00 0.00 93 1011.7
20260905113508 21 355 0.0 3.2 0.00 0.00 0.00 93 1011.6
20260905113006 21 355 1.6 4.8 0.00 0.00 0.00 93 1011.5
20260905112506 21 9 1.6 3.2 0.00 0.00 0.00 93 1011.5
20260905112006 21 5 1.6 4.8 0.00 0.00 0.00 93 1011.4
20260905111506 21 16 1.6 3.2 0.00 0.00 0.00 92 1011.4
20260905111006 21 26 1.6 4.8 0.00 0.00 0.00 92 1011.4
20260905110506 21 50 0.0 3.2 0.00 0.00 0.00 92 1011.4
20260905110005 21 50 0.0 1.6 0.00 0.00 0.00 93 1011.5
20260905105506 21 50 1.6 3.2 0.00 0.00 0.00 93 1011.4
20260905105006 21 355 0.0 3.2 0.00 0.00 0.00 93 1011.4
20260905104006 21 355 0.0 1.6 0.00 0.00 0.00 93 1011.4
20260905103506 21 355 0.0 1.6 0.00 0.00 0.00 93 1011.4
20260905103006 21 355 1.6 4.8 0.00 0.00 0.00 93 1011.4
20260905102506 21 355 1.6 4.8 0.00 0.00 0.00 93 1011.3
20260905102006 21 79 0.0 1.6 0.00 0.00 0.00 92 1011.5
20260905101006 21 79 0.0 3.2 0.00 0.00 0.00 92 1011.1
20260905100506 21 25 0.0 3.2 0.00 0.00 0.00 92 1010.8
20260905100006 21 340 1.6 4.8 0.00 0.00 0.00 92 1010.8
20260905095506 21 22 0.0 4.8 0.00 0.00 0.00 92 1010.7
20260905095006 21 22 1.6 3.2 0.00 0.00 0.00 92 1010.7
20260905094505 21 348 1.6 3.2 0.00 0.00 0.00 92 1010.6
20260905094006 21 5 1.6 3.2 0.00 0.00 0.00 92 1010.6
20260905093505 21 5 1.6 3.2 0.00 0.00 0.00 92 1010.7
20260905093006 21 5 1.6 4.8 0.00 0.00 0.00 92 1010.6
20260905092506 21 334 1.6 4.8 0.00 0.00 0.00 92 1010.6
20260905091506 21 327 0.0 3.2 0.00 0.00 0.00 92 1010.8
20260905090506 21 6 1.6 4.8 0.00 0.00 0.00 92 1010.9
20260905090006 21 5 0.0 3.2 0.00 0.00 0.00 92 1010.9
20260905085506 21 5 0.0 1.6 0.00 0.00 0.00 92 1011.0
20260905085006 21 5 0.0 4.8 0.00 0.00 0.00 92 1011.0
20260905084506 20 5 1.6 3.2 0.00 0.00 0.00 92 1011.0
20260905084006 20 5 0.0 0.0 0.00 0.00 0.00 92 1011.1
20260905083506 20 5 0.0 0.0 0.00 0.00 0.00 92 1011.2
20260905082506 21 5 0.0 0.0 0.00 0.00 0.00 92 1011.2
20260905082006 21 5 0.0 3.2 0.00 0.00 0.00 92 1011.0
20260905081505 21 5 0.0 1.6 0.00 0.00 0.00 91 1011.0
20260905081006 21 5 0.0 0.0 0.00 0.00 0.00 91 1011.1
20260905080505 21 5 0.0 1.6 0.00 0.00 0.00 91 1011.1
20260905080006 21 5 0.0 0.0 0.00 0.00 0.00 91 1011.2
20260905075505 21 5 0.0 1.6 0.00 0.00 0.00 91 1011.1
20260905075006 21 5 0.0 0.0 0.00 0.00 0.00 91 1011.1
20260905074506 21 5 0.0 0.0 0.00 0.00 0.00 91 1011.1
20260905073505 21 5 0.0 1.6 0.00 0.00 0.00 91 1011.0
20260905073006 21 5 0.0 1.6 0.00 0.00 0.00 91 1011.0
20260905072505 21 5 0.0 1.6 0.00 0.00 0.00 91 1011.1
20260905072006 21 5 0.0 1.6 0.00 0.00 0.00 91 1011.0
20260905071506 21 5 0.0 0.0 0.00 0.00 0.00 91 1010.9
20260905070506 21 5 0.0 0.0 0.00 0.00 0.00 91 1010.8
20260905070005 22 5 0.0 0.0 0.00 0.00 0.00 91 1010.9
20260905065006 22 5 0.0 0.0 0.00 0.00 0.00 91 1010.8
20260905064505 22 5 0.0 1.6 0.00 0.00 0.00 91 1010.9
20260905063505 22 5 0.0 1.6 0.00 0.00 0.00 90 1010.8
20260905063006 22 5 0.0 0.0 0.00 0.00 0.00 90 1010.9
20260905062505 22 5 0.0 1.6 0.00 0.00 0.00 90 1010.7
20260905062006 22 5 0.0 1.6 0.00 0.00 0.00 90 1010.7
20260905061506 22 5 0.0 0.0 0.00 0.00 0.00 90 1010.8
20260905060505 22 5 0.0 0.0 0.00 0.00 0.00 90 1010.6
20260905060005 22 5 0.0 1.6 0.00 0.00 0.00 90 1010.7
20260905055505 22 5 0.0 1.6 0.00 0.00 0.00 90 1010.7
20260905055006 22 5 0.0 1.6 0.00 0.00 0.00 90 1010.7
20260905054505 23 5 0.0 1.6 0.00 0.00 0.00 90 1010.6
20260905053006 23 5 0.0 1.6 0.00 0.00 0.00 90 1010.5
20260905052506 23 5 0.0 1.6 0.00 0.00 0.00 90 1010.4
20260905052005 23 5 0.0 3.2 0.00 0.00 0.00 90 1010.3
20260905051506 23 5 0.0 0.0 0.00 0.00 0.00 90 1010.2
20260905051006 23 5 0.0 0.0 0.00 0.00 0.00 90 1010.2
20260905050505 23 5 0.0 0.0 0.00 0.00 0.00 90 1010.2
20260905050006 23 5 0.0 0.0 0.00 0.00 0.00 90 1010.2
20260905045506 23 5 0.0 0.0 0.00 0.00 0.00 90 1010.1
20260905045006 23 5 0.0 0.0 0.00 0.00 0.00 90 1010.1